Temperature
16 16 16 16 16 16 16 16 16 16 16 17 16 17 16 16 16 16 16 16 16 16 16 16 16 15 15 15 15 15 15 15 14 14 14 14 14 14
16 16 16 16 16 16 16 16 16 16 16 16 16 16 16 16 16 16 16 16 15 15 16 15 15 15 15 15 15 15 14 14 14 14 14 14 14 14
15 15 15 15 16 15 16 16 16 16 16 16 16 16 16 16 15 15 15 15 15 15 15 15 15 15 15 15 14 14 14 14 14 14 14 14 14 14
15 15 15 15 15 15 15 15 15 15 15 15 15 15 15 15 15 15 15 15 15 15 15 15 15 15 14 14 14 14 14 14 13 13 13 13 13 13
15 15 15 15 15 15 15 15 15 15 15 15 15 15 15 15 15 15 15 15 15 15 15 14 14 14 14 14 14 14 14 13 13 13 13 13 13 13
15 15 15 15 15 15 15 15 15 15 15 15 15 15 15 15 15 14 14 14 14 14 14 14 14 14 14 14 13 13 13 13 13 13 13 13 13 13
15 14 14 14 14 14 14 14 14 14 15 14 14 14 14 14 14 14 14 14 14 14 14 14 14 13 13 13 13 13 13 13 13 13 12 12 12 12
14 14 14 14 14 14 14 14 14 14 14 14 14 14 14 14 14 14 14 14 13 13 13 13 13 13 13 13 13 13 13 13 13 12 12 12 12 12
14 14 14 14 14 14 14 14 14 14 14 14 14 14 14 14 14 14 14 14 13 13 13 13 13 13 13 13 13 13 13 12 12 12 12 12 12 12
14 14 14 14 14 14 14 14 14 14 14 14 14 14 14 14 14 13 13 13 13 13 13 12 12 12 12 12 12 12 12 12 12 12 12 12 12 12
14 14 14 14 14 13 13 13 13 13 13 13 13 13 13 13 13 13 13 13 13 12 12 12 12 12 12 12 12 12 12 12 12 12 12 12 11 11
13 13 13 13 13 13 13 13 13 13 13 13 13 13 13 13 13 13 13 12 12 12 12 12 12 12 12 12 12 12 12 12 12 11 11 11 11 11
13 13 13 13 13 13 13 12 12 12 12 12 12 13 13 13 13 13 12 12 12 12 12 12 12 12 12 11 11 11 11 11 11 11 11 11 11 11
13 13 13 13 13 13 13 13 12 12 12 12 12 12 12 12 12 12 12 12 12 12 12 12 12 12 11 11 11 11 11 11 11 11 11 11 11 11
13 13 12 12 12 12 12 12 12 12 12 12 12 12 12 12 12 12 12 12 12 12 12 12 12 11 11 11 11 11 11 11 11 11 11 11 11 11
12 12 12 12 12 12 12 12 12 12 12 12 12 12 12 12 12 11 11 11 11 11 11 11 11 11 11 11 11 11 11 11 11 11 11 11 11 11
12 12 12 12 12 12 12 12 12 12 12 12 12 12 12 11 11 11 11 11 11 11 11 11 11 11 11 11 11 11 11 11 11 11 10 10 10 10
12 12 12 12 12 12 12 12 12 12 11 11 11 11 11 11 11 11 11 11 11 11 11 11 11 11 11 11 11 11 11 11 11 10 10 10 10 10
12 12 11 11 11 11 12 11 11 11 11 11 11 11 11 11 11 11 11 11 11 11 11 11 11 10 10 10 11 11 11 10 10 10 10 10 10 10
12 11 11 11 11 11 11 11 11 11 11 11 11 11 11 11 11 11 11 10 10 10 10 10 10 10 10 10 10 10 10 10 10 10 10 10 10 10
11 11 11 11 11 11 11 11 11 11 11 11 11 11 11 11 10 10 10 10 10 10 10 10 10 10 10 10 10 10 10 10 10 10 10 10 10 9
11 10 10 10 10 10 10 10 10 10 10 10 10 10 10 10 10 10 10 10 10 10 10 10 10 10 10 10 10 10 10 10 10 10 10 10 10 9
10 10 10 10 10 10 10 10 10 10 9 10 10 10 10 10 10 10 10 10 10 10 10 9 9 9 9 10 9 9 9 10 10 10 10 10 10 10
Wind_Speed
2 2 2 3 3 2 2 2 2 2 2 1 1 1 2 4 7 7 8 11 12 12 12 12 12 13 12 12 11 10 10 9 9 9 8 8 8 7
2 2 2 3 3 2 2 2 2 2 2 1 0 1 1 2 5 6 6 11 12 12 12 12 11 12 12 11 11 11 11 10 9 9 8 8 7 7
3 2 2 3 3 3 3 2 2 2 2 1 0 0 1 1 3 4 7 8 9 12 13 13 13 12 12 11 11 11 11 10 9 9 8 8 8 7
2 2 2 2 2 3 3 3 2 1 1 1 1 1 0 1 3 3 3 5 6 10 13 13 13 13 13 12 12 12 11 10 10 9 9 8 8 7
2 1 2 2 2 2 2 2 2 2 0 1 1 0 1 1 2 2 1 2 4 7 11 12 12 13 13 13 12 12 12 11 10 10 10 9 8 8
2 1 1 1 1 2 2 1 1 1 1 0 1 1 1 1 2 2 2 2 2 3 6 9 11 12 12 12 12 12 12 12 11 11 10 10 9 8
2 2 1 2 3 2 2 2 1 0 0 0 1 1 0 1 1 1 2 2 2 2 3 4 6 6 8 10 11 11 12 12 11 11 11 10 10 9
2 2 1 1 2 3 2 3 2 0 1 1 0 0 0 0 1 1 2 2 1 2 3 3 4 5 6 8 11 13 13 12 12 11 11 11 10 10
2 2 2 2 2 1 1 1 2 1 0 0 0 1 1 0 1 1 1 2 1 2 2 2 3 4 4 8 12 14 14 13 13 12 11 10 10 10
1 1 1 2 3 1 1 0 0 0 2 2 1 1 0 0 1 1 2 1 1 2 3 2 3 3 4 6 13 15 15 14 14 14 13 12 11 10
1 1 1 1 2 2 1 1 1 1 1 1 2 2 2 1 1 1 1 2 1 2 2 2 2 2 2 3 8 15 15 15 15 15 14 14 13 11
1 1 2 1 1 1 1 2 2 2 3 1 1 2 3 3 4 3 3 3 2 2 2 2 2 1 1 2 3 7 9 12 15 15 15 15 14 9
2 1 1 1 1 2 3 2 3 3 3 3 2 2 2 3 3 3 3 3 3 2 2 2 2 2 2 1 2 4 6 6 8 9 12 14 15 12
3 1 0 1 3 4 3 4 4 4 3 3 2 2 2 2 3 3 4 4 3 3 3 3 2 3 3 2 2 3 4 6 6 5 7 11 13 15
3 4 3 4 5 4 6 6 4 3 3 3 3 2 2 2 2 2 3 3 3 3 4 4 3 3 3 3 3 3 3 4 5 5 5 6 6 7
3 4 5 5 5 4 4 4 3 3 3 3 3 2 2 2 2 1 1 2 2 2 2 3 3 3 3 3 3 4 3 3 4 5 4 4 5 7
3 3 3 3 3 3 3 3 3 3 3 3 2 2 2 2 1 1 2 2 2 3 2 2 2 3 3 3 3 3 3 3 3 4 4 4 4 5
2 3 3 3 2 2 2 2 2 2 3 3 2 2 2 2 2 2 2 2 3 3 2 2 2 1 2 3 4 3 3 3 3 4 3 4 4 4
3 3 3 2 2 2 2 2 2 2 2 2 2 3 3 2 2 2 2 2 3 2 2 2 2 3 4 4 3 4 4 3 3 4 4 4 4 4
3 2 3 2 2 2 2 2 2 2 2 2 2 2 2 2 2 2 2 2 2 3 3 2 3 3 4 4 2 2 6 5 4 4 4 4 3 3
1 2 2 2 2 2 2 2 2 2 2 2 2 3 2 2 2 2 2 3 3 2 3 3 3 4 3 2 2 3 2 5 6 4 4 4 3 3
1 2 2 2 2 2 2 2 2 2 2 2 3 2 2 2 2 2 2 2 2 3 3 2 2 2 2 3 4 4 3 3 4 5 6 5 4 4
2 2 2 1 1 2 2 3 3 3 3 3 3 3 3 3 2 2 2 2 2 2 2 3 3 3 3 4 4 3 4 4 3 3 3 6 8 8
Wind_Direction
294 298 287 290 279 271 251 225 219 246 236 202 150 137 132 138 159 172 169 183 188 188 187 187 185 184 184 187 190 191 190 188 187 190 196 201 205 209
286 309 305 301 306 286 272 258 247 244 253 227 191 108 109 142 156 168 164 171 185 186 187 187 186 185 184 185 188 187 187 185 183 185 186 186 186 190
299 300 302 307 322 318 305 288 268 260 245 256 278 73 129 109 137 169 168 169 177 186 186 185 183 180 179 179 179 177 178 181 183 184 182 184 189 195
307 316 312 301 294 301 315 313 312 288 224 238 269 324 50 158 154 173 171 175 164 178 180 180 179 177 176 177 177 175 175 176 181 185 186 188 191 193
314 318 319 327 318 308 303 313 313 307 281 170 261 320 231 189 135 141 134 132 166 162 170 175 175 174 174 176 178 177 176 178 181 183 186 190 193 196
320 315 325 339 321 316 301 306 320 348 356 123 208 209 217 175 152 154 158 168 174 171 162 170 175 175 174 175 180 183 185 186 186 185 188 193 198 202
327 336 4 48 52 29 344 3 358 359 313 229 204 166 178 118 184 182 155 156 170 175 156 161 161 169 178 183 185 184 186 190 192 193 194 198 201 206
336 340 353 77 72 65 45 40 50 17 340 348 349 271 259 174 154 192 173 183 209 178 158 172 158 167 174 184 185 186 189 191 192 196 200 205 208 210
341 346 330 6 66 82 49 41 47 14 344 223 290 298 278 231 165 198 199 191 207 181 165 186 173 173 174 187 182 185 190 193 195 198 201 206 213 218
339 346 360 17 360 17 297 190 163 285 244 226 201 259 304 24 246 215 197 184 205 199 179 189 191 191 189 174 185 188 193 198 201 202 204 209 215 222
281 2 360 19 350 350 314 302 281 285 270 189 181 196 192 214 225 199 206 177 207 213 191 184 194 183 179 185 187 192 195 200 207 211 212 214 218 223
225 145 79 29 327 328 303 299 300 309 318 317 257 234 223 214 208 205 211 210 207 213 192 175 190 185 200 197 175 185 197 208 212 215 218 220 218 213
298 266 164 168 283 271 269 271 273 292 289 272 251 232 219 215 202 197 204 212 217 228 196 177 201 205 196 199 194 190 192 199 208 220 225 226 220 208
308 309 269 257 284 275 258 255 268 290 279 280 276 256 230 214 208 199 199 211 215 222 208 199 211 207 202 210 216 194 196 200 198 204 211 220 220 217
322 333 304 260 262 260 248 246 252 259 265 271 279 269 262 243 214 197 201 206 213 221 217 205 211 217 207 217 206 200 201 204 199 202 206 205 204 203
296 295 280 263 259 263 252 239 233 248 256 255 262 280 291 270 237 209 210 206 217 239 225 208 198 207 226 223 215 216 202 202 204 209 204 206 207 207
278 262 261 255 256 251 243 229 223 235 250 255 251 257 260 262 253 226 216 222 233 235 237 236 206 197 218 234 226 224 212 214 210 209 210 217 217 215
270 271 271 264 267 279 289 278 249 242 251 251 246 245 249 247 251 237 214 224 238 242 239 233 211 214 252 259 224 222 225 230 224 214 212 221 230 224
256 272 286 293 292 299 301 307 308 306 291 274 257 250 245 244 238 235 229 233 240 242 240 237 222 213 228 248 249 210 218 235 231 224 219 221 231 231
247 270 291 303 311 317 323 327 324 320 306 294 284 267 253 242 237 243 238 235 240 242 248 239 223 222 231 241 248 238 215 224 232 229 229 233 235 223
272 279 288 295 307 316 316 309 309 311 315 307 285 273 270 265 256 249 240 240 244 254 258 258 240 226 235 252 258 250 229 214 226 230 227 232 238 232
291 294 291 292 299 309 314 307 304 307 314 316 309 304 302 297 284 271 262 253 251 255 264 265 254 239 240 243 252 246 239 237 243 248 240 225 220 227
261 272 274 280 310 324 308 307 316 316 322 340 342 328 317 303 290 278 267 256 263 273 273 276 269 251 244 240 249 253 249 245 240 235 249 241 225 222
Height
1516 1516 1516 1516 1515 1515 1515 1516 1517 1517 1517 1518 1518 1518 1518 1518 1518 1519 1519 1520 1521 1522 1523 1524 1525 1527 1528 1530 1531 1533 1534 1536 1537 1539 1540 1542 1543 1544
1514 1514 1513 1513 1513 1513 1514 1514 1514 1515 1515 1514 1515 1516 1516 1516 1516 1516 1517 1518 1519 1519 1520 1521 1522 1524 1525 1527 1528 1530 1531 1533 1535 1536 1538 1539 1540 1541
1512 1512 1511 1511 1511 1511 1511 1512 1512 1512 1512 1513 1513 1514 1514 1514 1514 1514 1515 1516 1516 1517 1518 1519 1520 1521 1523 1524 1525 1526 1528 1530 1532 1534 1535 1536 1538 1539
1511 1510 1510 1510 1509 1509 1509 1509 1510 1510 1510 1510 1510 1511 1511 1511 1512 1512 1513 1514 1514 1515 1516 1517 1518 1519 1520 1521 1522 1524 1526 1527 1529 1531 1532 1534 1535 1536
1509 1508 1508 1507 1507 1507 1507 1507 1508 1508 1508 1508 1508 1508 1509 1509 1510 1510 1511 1511 1512 1512 1513 1514 1515 1517 1518 1519 1520 1521 1523 1525 1527 1528 1530 1531 1532 1534
1508 1507 1506 1506 1505 1505 1505 1505 1506 1506 1506 1506 1506 1507 1507 1508 1508 1508 1508 1509 1509 1510 1511 1511 1513 1514 1515 1517 1518 1519 1521 1522 1524 1525 1527 1528 1530 1531
1506 1506 1505 1505 1504 1503 1503 1503 1504 1504 1504 1504 1505 1505 1505 1505 1506 1506 1506 1507 1508 1508 1508 1509 1510 1511 1512 1514 1516 1517 1518 1520 1521 1523 1524 1525 1527 1528
1505 1505 1504 1503 1502 1502 1502 1502 1502 1502 1502 1503 1503 1503 1503 1503 1504 1504 1505 1505 1505 1506 1506 1507 1507 1508 1510 1511 1513 1514 1516 1517 1518 1520 1521 1522 1524 1525
1503 1503 1503 1502 1501 1501 1500 1500 1500 1500 1501 1501 1500 1501 1501 1501 1502 1502 1502 1503 1503 1503 1504 1504 1506 1506 1508 1509 1510 1511 1513 1514 1515 1517 1518 1519 1520 1521
1502 1502 1501 1500 1500 1499 1499 1498 1498 1498 1498 1498 1499 1499 1499 1499 1499 1500 1500 1500 1501 1502 1502 1502 1503 1504 1506 1507 1508 1509 1511 1512 1513 1514 1515 1516 1517 1518
1501 1500 1499 1499 1498 1498 1497 1497 1497 1497 1497 1496 1496 1496 1496 1497 1497 1497 1498 1498 1498 1499 1500 1500 1501 1502 1503 1504 1505 1507 1508 1509 1510 1511 1512 1513 1514 1514
1500 1498 1498 1497 1497 1496 1496 1495 1495 1495 1495 1494 1494 1494 1494 1494 1494 1494 1495 1495 1495 1496 1497 1497 1498 1499 1500 1501 1502 1504 1505 1506 1507 1508 1509 1510 1510 1511
1498 1497 1497 1496 1496 1495 1495 1494 1494 1494 1493 1492 1492 1491 1491 1491 1491 1492 1492 1493 1493 1493 1494 1495 1495 1496 1497 1498 1499 1501 1502 1502 1503 1504 1505 1506 1507 1508
1496 1495 1495 1494 1494 1493 1493 1492 1492 1491 1491 1490 1490 1490 1489 1489 1489 1489 1489 1490 1490 1491 1491 1492 1493 1493 1494 1495 1496 1497 1498 1499 1500 1501 1502 1503 1504 1504
1493 1493 1493 1492 1491 1491 1490 1490 1489 1489 1489 1488 1488 1488 1488 1487 1487 1487 1487 1487 1487 1488 1488 1489 1490 1491 1491 1492 1492 1493 1494 1496 1497 1497 1498 1499 1500 1500
1491 1490 1490 1490 1489 1489 1488 1487 1487 1487 1486 1486 1486 1485 1485 1485 1485 1485 1484 1484 1484 1485 1486 1486 1487 1488 1488 1489 1490 1490 1491 1492 1493 1494 1495 1495 1496 1497
1489 1488 1488 1487 1486 1486 1485 1485 1485 1484 1484 1484 1483 1483 1483 1482 1482 1482 1482 1482 1482 1482 1482 1483 1484 1485 1485 1486 1487 1487 1488 1489 1490 1491 1491 1491 1492 1493
1487 1486 1486 1485 1485 1484 1483 1483 1483 1482 1482 1481 1481 1480 1480 1479 1479 1479 1479 1479 1479 1480 1480 1480 1481 1481 1482 1483 1484 1484 1484 1485 1486 1487 1487 1488 1488 1489
1485 1484 1484 1483 1483 1482 1482 1481 1480 1480 1479 1479 1478 1478 1477 1477 1476 1476 1476 1476 1477 1477 1477 1478 1478 1478 1479 1479 1480 1481 1481 1482 1483 1483 1484 1484 1484 1484
1482 1482 1481 1481 1480 1480 1479 1479 1478 1477 1477 1476 1476 1475 1475 1474 1474 1474 1474 1474 1474 1474 1474 1475 1475 1475 1475 1476 1476 1477 1478 1478 1479 1479 1480 1480 1480 1481
1480 1480 1479 1479 1478 1478 1477 1476 1475 1475 1474 1473 1473 1472 1472 1471 1471 1471 1471 1471 1471 1471 1471 1471 1472 1472 1472 1473 1473 1473 1474 1475 1475 1476 1476 1476 1476 1476
1478 1477 1477 1476 1476 1475 1474 1474 1473 1472 1471 1471 1470 1470 1469 1469 1468 1468 1468 1468 1468 1468 1468 1468 1468 1469 1469 1469 1469 1469 1470 1470 1471 1471 1472 1472 1472 1471
1475 1475 1474 1474 1473 1472 1471 1471 1470 1469 1468 1468 1467 1466 1466 1465 1465 1465 1465 1465 1465 1465 1464 1465 1465 1465 1465 1465 1465 1466 1466 1466 1466 1466 1467 1468 1468 1468